Location: Helsinki
(60.1699°N, 24.9384°E)
Time: 04:14:09
(UTC+03:00)

Envisat - Pass Details

Date: 25 August 2022
Orbit: 763 x 765 km, 98.2° (Epoch: 30 September)

Event Time Altitude Azimuth Distance (km) Brightness Sun altitude
Rises 04:29:32 0° 21° (NNE) 3,248 7.6 -9.9°
Reaches altitude 10° 04:32:31 10° 39° (NE) 2,316 7.1 -9.6°
Maximum altitude 04:36:08 19° 85° (E) 1,757 5.6 -9.3°
Drops below altitude 10° 04:39:44 10° 130° (SE) 2,304 5.6 -9.0°
Sets 04:42:41 0° 148° (SSE) 3,225 6.1 -8.7°
